CW9676 Weather Reports


time (UTC)temp
F
wind
direction
speed
knots
gust
knots
rain 1hr
in
rain 24hr
in
rain mn
in
humidity
%
barometer
mb
20260906191446 88 47 5.2 15.6 0.00 0.00 0.00 31 1003.5
20260906190416 88 34 5.2 15.6 0.00 0.00 0.00 31 1003.6
20260906185405 88 32 3.5 9.6 0.00 0.00 0.00 32 1003.8
20260906183211 88 124 3.5 7.8 0.00 0.00 0.00 33 1004.2
20260906182216 88 97 3.5 13.0 0.00 0.00 0.00 33 1004.2
20260906181158 86 19 4.3 13.0 0.00 0.00 0.00 35 1004.4
20260906180132 88 359 2.6 8.7 0.00 0.00 0.00 33 1004.7
20260906175139 87 73 3.5 10.4 0.00 0.00 0.00 34 1004.8
20260906174150 87 85 2.6 11.3 0.00 0.00 0.00 34 1004.9
20260906170745 87 126 3.5 8.7 0.00 0.00 0.00 33 1005.2
20260906165730 87 42 1.7 6.1 0.00 0.00 0.00 35 1005.3
20260906164709 85 34 2.6 6.1 0.00 0.00 0.00 35 1005.3
20260906163646 85 98 2.6 7.8 0.00 0.00 0.00 35 1005.3
20260906162618 84 63 2.6 7.8 0.00 0.00 0.00 36 1005.3
20260906161552 85 64 1.7 4.3 0.00 0.00 0.00 35 1005.3
20260906160548 84 61 3.5 7.8 0.00 0.00 0.00 36 1005.4
20260906155526 85 22 1.7 7.8 0.00 0.00 0.00 36 1005.4
20260906154525 84 45 2.6 7.0 0.00 0.00 0.00 37 1005.4
20260906153505 83 13 3.5 7.8 0.00 0.00 0.00 38 1005.5
20260906152527 83 359 4.3 7.8 0.00 0.00 0.00 38 1005.4
20260906151537 83 344 3.5 7.8 0.00 0.00 0.00 39 1005.5
20260906150520 82 359 3.5 7.8 0.00 0.00 0.00 40 1005.5
20260906145532 81 359 3.5 8.7 0.00 0.00 0.00 39 1005.6
20260906144550 81 353 4.3 8.7 0.00 0.00 0.00 39 1005.7
20260906142422 80 346 3.5 6.1 0.00 0.00 0.00 40 1005.7
20260906141354 79 354 1.7 4.3 0.00 0.00 0.00 41 1005.6
20260906140357 77 4 1.7 3.5 0.00 0.00 0.00 44 1005.6
20260906135336 75 339 0.9 2.6 0.00 0.00 0.00 46 1005.6
20260906134323 75 4 0.9 2.6 0.00 0.00 0.00 44 1005.6
20260906132123 75 353 0.0 3.5 0.00 0.00 0.00 44 1005.4
20260906131143 75 323 1.7 3.5 0.00 0.00 0.00 45 1005.3
20260906130147 74 315 0.9 3.5 0.00 0.00 0.00 45 1005.2
20260906124014 74 335 1.7 3.5 0.00 0.00 0.00 45 1005.0
20260906123012 74 337 1.7 4.3 0.00 0.00 0.00 45 1005.0
20260906121956 74 331 1.7 4.3 0.00 0.00 0.00 45 1005.0
20260906120951 74 333 1.7 3.5 0.00 0.00 0.00 45 1005.0
20260906120002 74 315 1.7 3.5 0.00 0.00 0.00 45 1005.0
20260906115023 74 329 1.7 4.3 0.00 0.00 0.00 45 1004.9
20260906112852 74 334 1.7 4.3 0.00 0.00 0.00 45 1005.0
20260906111903 75 329 1.7 4.3 0.00 0.00 0.00 45 1004.9
20260906105741 74 326 0.9 2.6 0.00 0.00 0.00 45 1004.9
20260906104732 74 322 0.9 2.6 0.00 0.00 0.00 45 1004.9
20260906103756 74 313 1.7 3.5 0.00 0.00 0.00 45 1004.9
20260906102820 74 309 1.7 4.3 0.00 0.00 0.00 45 1004.8
20260906101747 75 299 1.7 6.1 0.00 0.00 0.00 45 1004.9
20260906100800 75 294 3.5 6.1 0.00 0.00 0.00 45 1004.8
20260906095759 74 291 1.7 5.2 0.00 0.00 0.00 46 1004.8
20260906094808 74 270 1.7 3.5 0.00 0.00 0.00 46 1004.9
20260906093800 74 286 1.7 3.5 0.00 0.00 0.00 46 1004.9
20260906092825 74 275 3.5 7.0 0.00 0.00 0.00 46 1004.9
20260906091814 72 262 1.7 7.0 0.00 0.00 0.00 49 1005.0
20260906090749 73 220 1.7 0.0 0.00 0.00 0.00 49 1005.1
20260906085801 72 245 1.7 4.3 0.00 0.00 0.00 49 1005.2
20260906084730 72 250 1.7 3.5 0.00 0.00 0.00 50 1005.3
20260906083754 73 246 1.7 8.7 0.00 0.00 0.00 50 1005.3
20260906082729 72 219 2.6 8.7 0.00 0.00 0.00 51 1005.4
20260906080538 71 222 1.7 2.6 0.00 0.00 0.00 52 1005.5
20260906075520 72 230 0.9 4.3 0.00 0.00 0.00 51 1005.5
20260906074512 72 245 1.7 4.3 0.00 0.00 0.00 50 1005.6
20260906073515 72 254 0.9 3.5 0.00 0.00 0.00 51 1005.6
20260906072533 71 256 1.7 3.5 0.00 0.00 0.00 51 1005.7
20260906071516 71 247 2.6 3.5 0.00 0.00 0.00 51 1005.9
20260906070442 72 237 2.6 4.3 0.00 0.00 0.00 51 1006.0
20260906065507 72 219 3.5 4.3 0.00 0.00 0.00 51 1006.0
20260906064512 72 234 2.6 4.3 0.00 0.00 0.00 51 1006.1
20260906063523 72 228 2.6 3.5 0.00 0.00 0.00 50 1006.0
20260906062514 72 226 2.6 3.5 0.00 0.00 0.00 50 1006.1
20260906060416 73 247 2.6 4.3 0.00 0.00 0.00 49 1006.1
20260906054258 73 236 2.6 3.5 0.00 0.00 0.00 49 1006.0
20260906053237 73 237 2.6 3.5 0.00 0.00 0.00 49 1006.0
20260906052241 73 224 2.6 4.3 0.00 0.00 0.00 50 1005.9
20260906051306 73 214 3.5 4.3 0.00 0.00 0.00 50 1005.9
20260906050320 73 245 2.6 4.3 0.00 0.00 0.00 49 1006.1
20260906045311 73 237 1.7 3.5 0.00 0.00 0.00 49 1006.0
20260906044321 73 192 0.9 3.5 0.00 0.00 0.00 48 1006.0
20260906043337 74 199 1.7 3.5 0.00 0.00 0.00 47 1006.2
20260906042316 74 221 1.7 2.6 0.00 0.00 0.00 47 1006.1
20260906041329 75 221 1.7 2.6 0.00 0.00 0.00 45 1006.1
20260906040354 75 225 1.7 2.6 0.00 0.00 0.00 45 1006.2
20260906035410 75 231 0.9 2.6 0.00 0.00 0.00 45 1006.2
20260906034355 76 261 1.7 3.5 0.00 0.00 0.00 44 1006.1
20260906033350 75 281 2.6 3.5 0.00 0.00 0.00 44 1006.0
20260906032356 75 296 1.7 3.5 0.00 0.00 0.00 46 1005.8
20260906031327 75 50 0.0 0.9 0.00 0.00 0.00 47 1005.8
20260906030344 75 50 0.0 0.9 0.00 0.00 0.00 49 1005.7
20260906025342 74 50 0.0 0.9 0.00 0.00 0.00 50 1005.7
20260906024347 75 50 0.0 0.0 0.00 0.00 0.00 51 1005.5
20260906023359 75 49 0.0 0.9 0.00 0.00 0.00 50 1005.3
20260906022335 75 49 0.0 0.0 0.00 0.00 0.00 49 1005.3
20260906021335 76 50 0.0 0.9 0.00 0.00 0.00 49 1005.2
20260906020348 76 50 0.0 0.0 0.00 0.00 0.00 48 1005.0
20260906015352 76 50 0.0 0.9 0.00 0.00 0.00 48 1005.0
20260906013309 78 49 0.0 0.0 0.00 0.00 0.00 46 1005.1
20260906012306 78 49 0.0 0.0 0.00 0.00 0.00 45 1005.0
20260906011241 79 50 0.0 0.0 0.00 0.00 0.00 46 1005.0
20260906010253 79 49 0.0 3.5 0.00 0.00 0.00 47 1005.1
20260906005238 79 32 1.7 3.5 0.00 0.00 0.00 47 1005.2
20260906004215 78 346 0.9 4.3 0.00 0.00 0.00 48 1005.2
20260906003208 77 344 1.7 4.3 0.00 0.00 0.00 54 1005.3
20260906002227 75 4 1.7 3.5 0.00 0.00 0.00 61 1005.3
20260906001228 75 107 0.0 0.9 0.00 0.00 0.00 59 1005.5
20260906000156 75 150 0.9 3.5 0.00 0.00 0.00 59 1005.8
20260905235208 76 177 2.6 7.8 0.00 0.00 0.00 52 1005.8
20260905233032 76 276 4.3 10.4 0.00 0.00 0.00 50 1005.5
20260905230809 74 260 9.6 15.6 0.00 0.00 0.00 54 1005.0
20260905225817 74 304 11.3 19.1 0.00 0.00 0.00 54 1004.9
20260905224817 76 314 11.3 19.1 0.00 0.00 0.00 53 1005.0
20260905223832 83 313 6.1 14.8 0.00 0.00 0.00 41 1004.9
20260905222812 85 9 3.5 7.8 0.00 0.00 0.00 37 1004.7
20260905221802 87 108 1.7 7.8 0.00 0.00 0.00 32 1004.7
20260905220733 87 153 1.7 13.0 0.00 0.00 0.00 33 1004.8
20260905215738 87 189 6.1 13.0 0.00 0.00 0.00 34 1004.9
20260905213615 86 19 3.5 8.7 0.00 0.00 0.00 34 1005.0
20260905212625 86 44 1.7 7.8 0.00 0.00 0.00 34 1005.3
20260905211610 86 34 1.7 7.0 0.00 0.00 0.00 34 1005.5
20260905210613 86 57 2.6 7.0 0.00 0.00 0.00 37 1005.6
20260905204418 82 123 2.6 5.2 0.00 0.00 0.00 40 1006.0
20260905202239 81 125 2.6 7.8 0.00 0.00 0.00 42 1006.3
20260905201233 80 85 3.5 7.8 0.00 0.00 0.00 42 1006.3
20260905200251 80 115 3.5 7.8 0.00 0.00 0.00 42 1006.6
20260905194137 81 134 0.9 4.3 0.00 0.00 0.00 40 1006.6
20260905193103 82 75 0.0 5.2 0.00 0.00 0.00 42 1006.6
20260905192111 82 127 1.7 5.2 0.00 0.00 0.00 41 1006.7